Multibeam Report for AT26-19


Ship Name: Atlantis
Chief Scientist: Langmuir, Charles
Harvard University
Source Organization: Rolling Deck to Repository
Start Date: 2014-08-28
End Date: 2014-09-11


View ISO Metadata

Visit the full NCEI Bathymetry Viewer


Multibeam Bathymetry

Cruise Details

Project: Volcano, Ocean, Ice, and Carbon Experiments (VOICE)
Instrument: Kongsberg EM122

Data Quality

Number of Files: 147
Number of Records: 110873
BATHYMETRY DATA Quantity Percentage
Number of Beams 47889360 100%
Number of Good Beams 43998845 91.88%
Number of Zero Beams 3154 0.01%
Number of Flagged Beams 3887361 8.12%
AMPLITUDE DATA Quantity Percentage
Number of Beams 47889360 100%
Number of Good Beams 43998845 91.88%
Number of Zero Beams 3154 0.01%
Number of Flagged Beams 3887361 8.12%
SIDESCAN DATA Quantity Percentage
Number of Pixels 113515520 100%
Number of Good Pixels 99725183 87.85%
Number of Zero Pixels 0 0%
Number of Flagged Pixels 13790337 12.15%

Navigation Totals

Total Time: 154.4433 hours
Total Track Length: 2468.6977 km
Average Speed: 15.984 km/hr (8.6307 knots)

Cruise Bounds

Northern Extent: 46.185005
Southern Extent: 44.422615
Western Extent: -131.20433
Eastern Extent: -124.329926

Limits

Minimum Sonar Depth 3.4291 Maximum Sonar Depth 7.8466
Minimum Altitude 74.5026 Maximum Altitude 5249.4546
Minimum Depth 78.7089 Maximum Depth 5638.2344
Minimum Amplitude 0 Maximum Amplitude 4.5
Minimum Sidescan 0 Maximum Sidescan 10.99

File Information

Full Resolution Bathymetry as collected (raw): 144

Files File Size Description
0000_20140828_131839_Atlantis.all.mb58.gz 0.72MB Kongsberg multibeam vendor format
0001_20140828_132008_Atlantis.all.mb58.gz 450.9KB Kongsberg multibeam vendor format
0002_20140828_132046_Atlantis.all.mb58.gz 0.77MB Kongsberg multibeam vendor format
0003_20140828_133317_Atlantis.all.mb58.gz 103.9KB Kongsberg multibeam vendor format
0004_20140828_133324_Atlantis.all.mb58.gz 1.38MB Kongsberg multibeam vendor format
0005_20140828_133518_Atlantis.all.mb58.gz 2.32MB Kongsberg multibeam vendor format
0006_20140828_134020_Atlantis.all.mb58.gz 134.04MB Kongsberg multibeam vendor format
0007_20140828_141949_Atlantis.all.mb58.gz 50.37MB Kongsberg multibeam vendor format
0008_20140828_143231_Atlantis.all.mb58.gz 45.69MB Kongsberg multibeam vendor format
0009_20140828_144534_Atlantis.all.mb58.gz 8.23MB Kongsberg multibeam vendor format
0010_20140828_144806_Atlantis.all.mb58.gz 11.98MB Kongsberg multibeam vendor format
0011_20140828_145209_Atlantis.all.mb58.gz 7.70MB Kongsberg multibeam vendor format
0012_20140828_145502_Atlantis.all.mb58.gz 5.80MB Kongsberg multibeam vendor format
0013_20140828_145714_Atlantis.all.mb58.gz 6.51MB Kongsberg multibeam vendor format
0014_20140828_145946_Atlantis.all.mb58.gz 8.06MB Kongsberg multibeam vendor format
0015_20140828_150250_Atlantis.all.mb58.gz 8.79MB Kongsberg multibeam vendor format
0016_20140828_150801_Atlantis.all.mb58.gz 14.37MB Kongsberg multibeam vendor format
0017_20140828_151639_Atlantis.all.mb58.gz 6.58MB Kongsberg multibeam vendor format
0018_20140828_152649_Atlantis.all.mb58.gz 8.35MB Kongsberg multibeam vendor format
0019_20140828_153206_Atlantis.all.mb58.gz 35.95MB Kongsberg multibeam vendor format
0020_20140828_155419_Atlantis.all.mb58.gz 132.33MB Kongsberg multibeam vendor format
0021_20140828_172525_Atlantis.all.mb58.gz 107.36MB Kongsberg multibeam vendor format
0022_20140828_185514_Atlantis.all.mb58.gz 50.30MB Kongsberg multibeam vendor format
0023_20140828_194040_Atlantis.all.mb58.gz 49.48MB Kongsberg multibeam vendor format
0024_20140828_202536_Atlantis.all.mb58.gz 58.02MB Kongsberg multibeam vendor format
0025_20140828_211904_Atlantis.all.mb58.gz 125.59MB Kongsberg multibeam vendor format
0026_20140828_231846_Atlantis.all.mb58.gz 2.12MB Kongsberg multibeam vendor format
0027_20140828_232050_Atlantis.all.mb58.gz 119.21MB Kongsberg multibeam vendor format
0028_20140829_012037_Atlantis.all.mb58.gz 120.55MB Kongsberg multibeam vendor format
0029_20140829_032037_Atlantis.all.mb58.gz 12.19MB Kongsberg multibeam vendor format
0030_20140829_033224_Atlantis.all.mb58.gz 26.09MB Kongsberg multibeam vendor format
0031_20140829_035735_Atlantis.all.mb58.gz 72.84MB Kongsberg multibeam vendor format
0032_20140829_050807_Atlantis.all.mb58.gz 124.34MB Kongsberg multibeam vendor format
0033_20140829_070753_Atlantis.all.mb58.gz 24.71MB Kongsberg multibeam vendor format
0034_20140829_073153_Atlantis.all.mb58.gz 107.40MB Kongsberg multibeam vendor format
0035_20140829_091554_Atlantis.all.mb58.gz 12.76MB Kongsberg multibeam vendor format
0036_20140829_092858_Atlantis.all.mb58.gz 125.71MB Kongsberg multibeam vendor format
0037_20140829_112841_Atlantis.all.mb58.gz 107.31MB Kongsberg multibeam vendor format
0038_20140829_132843_Atlantis.all.mb58.gz 33.94MB Kongsberg multibeam vendor format
0039_20140829_141234_Atlantis.all.mb58.gz 63.59MB Kongsberg multibeam vendor format
0040_20140829_153351_Atlantis.all.mb58.gz 50.12MB Kongsberg multibeam vendor format
0041_20140829_195124_Atlantis.all.mb58.gz 14.57MB Kongsberg multibeam vendor format
0042_20140829_222221_Atlantis.all.mb58.gz 24.21MB Kongsberg multibeam vendor format
0043_20140829_225420_Atlantis.all.mb58.gz 36.63MB Kongsberg multibeam vendor format
0044_20140829_234345_Atlantis.all.mb58.gz 5.67MB Kongsberg multibeam vendor format
0045_20140829_235127_Atlantis.all.mb58.gz 49.92MB Kongsberg multibeam vendor format
0046_20140830_023233_Atlantis.all.mb58.gz 96.2KB Kongsberg multibeam vendor format
0047_20140830_040647_Atlantis.all.mb58.gz 72.43MB Kongsberg multibeam vendor format
0048_20140830_054355_Atlantis.all.mb58.gz 36.99MB Kongsberg multibeam vendor format
0049_20140830_063248_Atlantis.all.mb58.gz 68.14MB Kongsberg multibeam vendor format
0050_20140830_075025_Atlantis.all.mb58.gz 124.96MB Kongsberg multibeam vendor format
0051_20140830_095006_Atlantis.all.mb58.gz 86.50MB Kongsberg multibeam vendor format
0052_20140830_111639_Atlantis.all.mb58.gz 123.28MB Kongsberg multibeam vendor format
0053_20140830_131625_Atlantis.all.mb58.gz 120.71MB Kongsberg multibeam vendor format
0054_20140830_151626_Atlantis.all.mb58.gz 114.25MB Kongsberg multibeam vendor format
0055_20140830_195057_Atlantis.all.mb58.gz 119.71MB Kongsberg multibeam vendor format
0056_20140830_215057_Atlantis.all.mb58.gz 47.14MB Kongsberg multibeam vendor format
0057_20140831_032416_Atlantis.all.mb58.gz 121.51MB Kongsberg multibeam vendor format
0058_20140831_052415_Atlantis.all.mb58.gz 69.84MB Kongsberg multibeam vendor format
0059_20140831_202142_Atlantis.all.mb58.gz 121.17MB Kongsberg multibeam vendor format
0060_20140831_222144_Atlantis.all.mb58.gz 26.69MB Kongsberg multibeam vendor format
0061_20140901_081554_Atlantis.all.mb58.gz 124.74MB Kongsberg multibeam vendor format
0062_20140901_101555_Atlantis.all.mb58.gz 122.51MB Kongsberg multibeam vendor format
0063_20140901_121601_Atlantis.all.mb58.gz 18.20MB Kongsberg multibeam vendor format
0064_20140901_213405_Atlantis.all.mb58.gz 122.45MB Kongsberg multibeam vendor format
0065_20140901_233406_Atlantis.all.mb58.gz 106.48MB Kongsberg multibeam vendor format
0066_20140902_033104_Atlantis.all.mb58.gz 53.40MB Kongsberg multibeam vendor format
0067_20140902_074705_Atlantis.all.mb58.gz 121.32MB Kongsberg multibeam vendor format
0068_20140902_094712_Atlantis.all.mb58.gz 119.67MB Kongsberg multibeam vendor format
0069_20140902_114701_Atlantis.all.mb58.gz 117.83MB Kongsberg multibeam vendor format
0070_20140902_134707_Atlantis.all.mb58.gz 66.57MB Kongsberg multibeam vendor format
0071_20140902_145417_Atlantis.all.mb58.gz 12.19MB Kongsberg multibeam vendor format
0072_20140902_150601_Atlantis.all.mb58.gz 120.59MB Kongsberg multibeam vendor format
0073_20140902_170545_Atlantis.all.mb58.gz 123.15MB Kongsberg multibeam vendor format
0074_20140902_190545_Atlantis.all.mb58.gz 24.28MB Kongsberg multibeam vendor format
0075_20140903_075441_Atlantis.all.mb58.gz 117.4KB Kongsberg multibeam vendor format
0076_20140903_084353_Atlantis.all.mb58.gz 113.77MB Kongsberg multibeam vendor format
0077_20140903_103912_Atlantis.all.mb58.gz 61.74MB Kongsberg multibeam vendor format
0078_20140903_114357_Atlantis.all.mb58.gz 118.68MB Kongsberg multibeam vendor format
0079_20140903_134339_Atlantis.all.mb58.gz 118.96MB Kongsberg multibeam vendor format
0080_20140903_154345_Atlantis.all.mb58.gz 36.21MB Kongsberg multibeam vendor format
0081_20140904_024020_Atlantis.all.mb58.gz 121.10MB Kongsberg multibeam vendor format
0082_20140904_044028_Atlantis.all.mb58.gz 49.69MB Kongsberg multibeam vendor format
0083_20140904_083913_Atlantis.all.mb58.gz 121.83MB Kongsberg multibeam vendor format
0084_20140904_103916_Atlantis.all.mb58.gz 120.63MB Kongsberg multibeam vendor format
0085_20140904_123912_Atlantis.all.mb58.gz 1.52MB Kongsberg multibeam vendor format
0086_20140904_124044_Atlantis.all.mb58.gz 124.80MB Kongsberg multibeam vendor format
0087_20140904_144032_Atlantis.all.mb58.gz 120.77MB Kongsberg multibeam vendor format
0088_20140904_164027_Atlantis.all.mb58.gz 12.87MB Kongsberg multibeam vendor format
0089_20140904_172430_Atlantis.all.mb58.gz 56.88MB Kongsberg multibeam vendor format
0091_20140904_223121_Atlantis.all.mb58.gz 43.00MB Kongsberg multibeam vendor format
0092_20140905_015950_Atlantis.all.mb58.gz 60.49MB Kongsberg multibeam vendor format
0093_20140905_043952_Atlantis.all.mb58.gz 74.25MB Kongsberg multibeam vendor format
0094_20140905_074905_Atlantis.all.mb58.gz 33.46MB Kongsberg multibeam vendor format
0095_20140905_182953_Atlantis.all.mb58.gz 105.27MB Kongsberg multibeam vendor format
0096_20140905_202235_Atlantis.all.mb58.gz 40.25MB Kongsberg multibeam vendor format
0097_20140905_210143_Atlantis.all.mb58.gz 70.11MB Kongsberg multibeam vendor format
0098_20140905_221028_Atlantis.all.mb58.gz 34.16MB Kongsberg multibeam vendor format
0099_20140906_081232_Atlantis.all.mb58.gz 53.93MB Kongsberg multibeam vendor format
0100_20140906_090603_Atlantis.all.mb58.gz 59.88MB Kongsberg multibeam vendor format
0101_20140906_100446_Atlantis.all.mb58.gz 33.35MB Kongsberg multibeam vendor format
0103_20140906_112847_Atlantis.all.mb58.gz 24.71MB Kongsberg multibeam vendor format
0104_20140906_232939_Atlantis.all.mb58.gz 13.79MB Kongsberg multibeam vendor format
0105_20140906_234312_Atlantis.all.mb58.gz 63.43MB Kongsberg multibeam vendor format
0106_20140907_054749_Atlantis.all.mb58.gz 61.49MB Kongsberg multibeam vendor format
0107_20140907_064836_Atlantis.all.mb58.gz 59.80MB Kongsberg multibeam vendor format
0108_20140907_074744_Atlantis.all.mb58.gz 110.32MB Kongsberg multibeam vendor format
0109_20140907_093846_Atlantis.all.mb58.gz 6.28MB Kongsberg multibeam vendor format
0110_20140907_094458_Atlantis.all.mb58.gz 64.06MB Kongsberg multibeam vendor format
0111_20140907_104813_Atlantis.all.mb58.gz 121.47MB Kongsberg multibeam vendor format
0112_20140907_124758_Atlantis.all.mb58.gz 61.93MB Kongsberg multibeam vendor format
0113_20140907_134917_Atlantis.all.mb58.gz 88.88MB Kongsberg multibeam vendor format
0114_20140907_184148_Atlantis.all.mb58.gz 120.70MB Kongsberg multibeam vendor format
0115_20140907_204153_Atlantis.all.mb58.gz 119.88MB Kongsberg multibeam vendor format
0116_20140907_224151_Atlantis.all.mb58.gz 120.46MB Kongsberg multibeam vendor format
0117_20140908_004143_Atlantis.all.mb58.gz 105.17MB Kongsberg multibeam vendor format
0118_20140908_045228_Atlantis.all.mb58.gz 49.58MB Kongsberg multibeam vendor format
0119_20140908_150320_Atlantis.all.mb58.gz 371.9KB Kongsberg multibeam vendor format
0120_20140908_165527_Atlantis.all.mb58.gz 40.08MB Kongsberg multibeam vendor format
0121_20140908_194041_Atlantis.all.mb58.gz 79.96MB Kongsberg multibeam vendor format
0122_20140908_212433_Atlantis.all.mb58.gz 0.77MB Kongsberg multibeam vendor format
0123_20140909_155103_Atlantis.all.mb58.gz 120.84MB Kongsberg multibeam vendor format
0124_20140909_175056_Atlantis.all.mb58.gz 39.83MB Kongsberg multibeam vendor format
0125_20140909_192053_Atlantis.all.mb58.gz 3.05MB Kongsberg multibeam vendor format
0126_20140909_201517_Atlantis.all.mb58.gz 40.59MB Kongsberg multibeam vendor format
0127_20140909_223918_Atlantis.all.mb58.gz 40.83MB Kongsberg multibeam vendor format
0128_20140910_012550_Atlantis.all.mb58.gz 48.47MB Kongsberg multibeam vendor format
0129_20140910_035011_Atlantis.all.mb58.gz 38.30MB Kongsberg multibeam vendor format
0130_20140910_070412_Atlantis.all.mb58.gz 21.76MB Kongsberg multibeam vendor format
0131_20140910_090455_Atlantis.all.mb58.gz 27.22MB Kongsberg multibeam vendor format
0132_20140910_114609_Atlantis.all.mb58.gz 100.03MB Kongsberg multibeam vendor format
0133_20140910_134559_Atlantis.all.mb58.gz 93.61MB Kongsberg multibeam vendor format
0134_20140910_154558_Atlantis.all.mb58.gz 93.39MB Kongsberg multibeam vendor format
0135_20140910_174601_Atlantis.all.mb58.gz 92.76MB Kongsberg multibeam vendor format
0136_20140910_194558_Atlantis.all.mb58.gz 92.76MB Kongsberg multibeam vendor format
0137_20140910_214559_Atlantis.all.mb58.gz 92.44MB Kongsberg multibeam vendor format
0138_20140910_234602_Atlantis.all.mb58.gz 92.63MB Kongsberg multibeam vendor format
0139_20140911_014604_Atlantis.all.mb58.gz 93.35MB Kongsberg multibeam vendor format
0140_20140911_034603_Atlantis.all.mb58.gz 94.59MB Kongsberg multibeam vendor format
0141_20140911_054600_Atlantis.all.mb58.gz 97.51MB Kongsberg multibeam vendor format
0142_20140911_074601_Atlantis.all.mb58.gz 109.16MB Kongsberg multibeam vendor format
0143_20140911_094601_Atlantis.all.mb58.gz 102.78MB Kongsberg multibeam vendor format
9999.all.mb58.gz 117.7KB Kongsberg multibeam vendor format
9999_140904202039_tmp.all.mb58.gz 121.31MB Kongsberg multibeam vendor format

Metadata Files: 2

Files File Size Description
AT26-19_Multibeam.xml NGDC created ISO metadata
em122_bag_info.tar.gz 10.2KB Additional cruise information

Water Column Sonar Data

Water Column Sonar Data Available: WCSD Map Viewer